Weather History for Joplin, MO

Change the Weather History Date:

Friday, June 28, 2013

  Actual Average Record
Temperature  
Mean Temperature 81 °F 79 °F  
Max Temperature 92 °F 89 °F 102 °F (2012)
Min Temperature 70 °F 68 °F 50 °F (1967)
Degree Days  
Heating Degree Days 0 0  
Month to date heating degree days 12 2  
Since 1 June heating degree days 12 2  
Since 1 July heating degree days 4258 4071  
Cooling Degree Days 16 14  
Month to date cooling degree days 307 291  
Year to date cooling degree days 451 471  
Since 1 June cooling degree days 307 291  
Growing Degree Days 31 (Base 50)    
Moisture  
Dew Point 64 °F    
Average Humidity 65    
Maximum Humidity 93    
Minimum Humidity 36    
Precipitation  
Precipitation T in 0.17 in 2.85 in (1999)
Month to date precipitation 5.39 5.53  
Year to date precipitation 27.78 23.48  
Sea Level Pressure  
Sea Level Pressure 29.88 in    
Wind  
Wind Speed 6 mph (NNW)    
Max Wind Speed 20 mph    
Max Gust Speed 25 mph    
Visibility 10 miles    
Events Rain , Thunderstorm    
T = Trace of Precipitation, MM = Missing Value Source: NWS Daily Summary

Daily Weather History Graph

Daily Weather History Graph

Search for Another Location

Airport:

Trip Planner

Search our weather history database for the weather conditions in past years. The results will help you decide how hot, cold, wet, or windy it might be!

Date:

Astronomy

Jun. 28, 2013 Rise Set
Actual Time 6:00 AM CDT 8:42 PM CDT
Civil Twilight 5:29 AM CDT 9:12 PM CDT
Nautical Twilight 4:51 AM CDT 9:51 PM CDT
Astronomical Twilight 4:07 AM CDT 10:34 PM CDT
Moon No Moon Rise 12:00 PM CDT (6/28)
Length of Visible Light 15h 43m
Length of Day
14h 41m
Waning Gibbous, 66% of the Moon is Illuminated
Jun 28
Waning Gibbous
Jun 29
Last Quarter
Jul 8
New
Jul 15
First Quarter
Jul 22
Full

Hourly Weather History & Observations

Time (CDT) Temp. Heat Index Dew Point Humidity Pressure Visibility Wind Dir Wind Speed Gust Speed Precip Events Conditions
12:49 AM 80.6 °F 82.3 °F 64.4 °F 58% 29.93 in 10.0 mi NW 18.4 mph 35.7 mph 0.00 in Rain , Thunderstorm Light Rain
12:53 AM 79.0 °F - 64.0 °F 60% 29.89 in 10.0 mi NW 18.4 mph 28.8 mph 0.00 in Rain , Thunderstorm Light Rain
1:33 AM 80.6 °F 81.8 °F 62.6 °F 54% 29.85 in 10.0 mi South 3.5 mph 17.3 mph 0.00 in   Clear
1:43 AM 80.6 °F 81.5 °F 60.8 °F 51% 29.85 in 10.0 mi NE 10.4 mph - 0.00 in Thunderstorm Clear
1:53 AM 77.0 °F - 64.0 °F 64% 29.82 in 10.0 mi Calm Calm - 0.00 in   Clear
2:53 AM 73.9 °F - 66.0 °F 76% 29.90 in 10.0 mi NNW 12.7 mph - 0.00 in   Partly Cloudy
3:53 AM 73.0 °F - 69.1 °F 87% 29.88 in 10.0 mi North 4.6 mph - N/A   Clear
4:53 AM 72.0 °F - 69.1 °F 91% 29.88 in 10.0 mi NNW 5.8 mph - N/A   Clear
5:53 AM 71.1 °F - 68.0 °F 90% 29.88 in 10.0 mi North 5.8 mph - N/A   Clear
6:53 AM 71.1 °F - 68.0 °F 90% 29.91 in 10.0 mi North 5.8 mph - N/A   Clear
7:53 AM 75.0 °F - 69.1 °F 82% 29.92 in 10.0 mi North 5.8 mph - N/A   Clear
8:53 AM 78.1 °F - 68.0 °F 71% 29.94 in 10.0 mi Variable 5.8 mph - N/A   Clear
9:53 AM 81.0 °F 83.8 °F 68.0 °F 65% 29.94 in 10.0 mi North 10.4 mph - N/A   Clear
10:53 AM 82.9 °F 86.5 °F 69.1 °F 63% 29.94 in 10.0 mi North - - N/A   Clear
11:53 AM 87.1 °F 89.2 °F 66.0 °F 49% 29.94 in 10.0 mi NNW 3.5 mph - N/A   Clear
12:53 PM 89.1 °F 90.0 °F 63.0 °F 42% 29.92 in 10.0 mi Variable 3.5 mph - N/A   Scattered Clouds
1:53 PM 91.0 °F 90.9 °F 61.0 °F 36% 29.90 in 10.0 mi Variable 5.8 mph - N/A   Clear
2:53 PM 86.0 °F 86.8 °F 63.0 °F 46% 29.89 in 10.0 mi NNW 15.0 mph 18.4 mph N/A   Mostly Cloudy
4:53 PM 90.0 °F 93.6 °F 68.0 °F 48% 29.85 in 10.0 mi NNW 15.0 mph - N/A   Partly Cloudy
5:53 PM 88.0 °F 89.6 °F 64.9 °F 46% 29.84 in 10.0 mi North 13.8 mph 20.7 mph N/A   Scattered Clouds
6:53 PM 87.1 °F 87.5 °F 62.1 °F 43% 29.84 in 10.0 mi North 10.4 mph - N/A   Partly Cloudy
7:53 PM 82.0 °F 82.1 °F 59.0 °F 45% 29.85 in 10.0 mi NNW 9.2 mph - N/A   Clear
8:53 PM 73.9 °F - 59.0 °F 59% 29.85 in 10.0 mi NNW 4.6 mph - N/A   Clear
9:53 PM 72.0 °F - 59.0 °F 64% 29.86 in 10.0 mi North 5.8 mph - N/A   Clear
10:53 PM 73.0 °F - 59.0 °F 61% 29.87 in 10.0 mi North 3.5 mph - N/A   Clear
11:53 PM 71.1 °F - 57.9 °F 63% 29.86 in 10.0 mi NNW 3.5 mph - N/A   Clear